Location: Recife
(8.0585°S, 34.8848°W)
Time: 12:11:52
(UTC-03:00)

Vanguard 1 Rocket - Pass Details

Date: 22 April 2026
Orbit: 655 x 4212 km, 34.3° (Epoch: 12 May)

Event Time Altitude Azimuth Distance (km) Brightness Sun altitude
Rises 17:42:57 0° 260° (W) 5,539 12.9 -7.8°
Reaches altitude 10° 17:46:24 10° 268° (W) 4,954 12.7 -8.6°
Maximum altitude 18:00:24 38° 330° (NNW) 4,458 11.3 -12.0°
Drops below altitude 10° 18:22:08 10° 30° (NNE) 7,379 11.8 -17.3°
Sets 18:29:10 0° 38° (NE) 8,428 12.1 -19.0°
